Flag for Norway Weather past 2 weeks in Elverum, Norway

Now
48 °F

Cool.


Feels Like: 48 °F
Forecast: 47 / 55 °F
Wind: 2 mph from Northwest

Location: Haugedalshogda

Current Time: Sep 3, 2015 at 12:20:55 AM

Latest Report: Sep 2, 2015 at 10:00 PM


Visibility: N/A

Pressure: 29.91 "Hg

Humidity: 90%

Dew point: 45 °F

Location of ElverumLocation

Historic Weather in Elverum — Graph

°F

Elverum temperature yesterday

Maximum temperature yesterday: 53 °F (at 3:00 AM)
Minimum temperature yesterday: 48 °F (at 10:00 PM)
Average temperature yesterday: 50 °F

Past Weeks' High & Low Weather Summary

 TemperatureHumidityPressure
High77 °F (Aug 23, 6:00 PM)96% (Aug 19, 5:00 AM)30.46 "Hg (Aug 19, 5:00 AM)
Low32 °F (Aug 22, 5:00 AM)21% (Aug 19, 3:00 PM)29.47 "Hg (Aug 27, 8:00 PM)
Average55 °F74%30.04 "Hg
* Reported Aug 18 10:00 PM — Sep 2 10:00 PM, Elverum, Weather by CustomWeather, © 2015

Note: Actual official high and low records may vary slightly from our data, if they occured in-between our weather recording intervals... More about our weather records

Advertising

Elverum weather history for previous 24 hours

 ConditionsComfort  
Time TempWeatherWind HumidityBarometerVisibility
10:00 PM
Wed, Sep 2
48 °FCool.2 mph90%29.91 "HgN/A
9:00 PM49 °FCool.2 mph88%29.90 "HgN/A
8:00 PM49 °FCool.3 mph86%29.90 "HgN/A
7:00 PM50 °FCool.2 mph85%29.88 "HgN/A
6:00 PM51 °FCool.3 mph85%29.88 "HgN/A
5:00 PM51 °FCool.3 mph86%29.88 "HgN/A
4:00 PM51 °FCool.3 mph87%29.87 "HgN/A
3:00 PM51 °FCool.3 mph87%29.87 "HgN/A
2:00 PM51 °FCool.3 mph87%29.87 "HgN/A
1:00 PM51 °FCool.3 mph88%29.87 "HgN/A
12:00 PM50 °FCool.5 mph92%29.87 "HgN/A
11:00 AM49 °FCool.5 mph93%29.88 "HgN/A
10:00 AM49 °FCool.5 mph90%29.89 "HgN/A
9:00 AM49 °FCool.2 mph86%29.89 "HgN/A
8:00 AM50 °FCool.3 mph86%29.88 "HgN/A
7:00 AM50 °FCool.3 mph88%29.88 "HgN/A
6:00 AM50 °FCool.3 mph88%29.89 "HgN/A
5:00 AM50 °FCool.2 mph89%29.90 "HgN/A
4:00 AM52 °FCool.2 mph82%29.90 "HgN/A
3:00 AM53 °FCool.3 mph78%29.91 "HgN/A
2:00 AM53 °FCool.3 mph83%29.92 "HgN/A
1:00 AM51 °FCool.3 mph94%29.93 "HgN/A
12:00 AM51 °FCool.2 mph92%29.95 "HgN/A
Weather by CustomWeather, © 2015

See weather overviewHow to use our weather pages